Regional Weather Roundup
Issued by NWS

Home | Current Version | Previous Version | Text Only | Print | Product List | Glossary On
Versions: 1 2 3 4 5 6 7 8 9 10 11 12 13 14 15 16 17 18 19 20 21 22 23 24 25 26 27 28 29 30 31 32 33 34 35 36 37 38 39 40 41 42 43 44 45 46 47 48 49 50
000
ASUS43 KDMX 101508
RWRIA

WEATHER ROUNDUP FOR IOWA
NATIONAL WEATHER SERVICE DES MOINES IA
900 AM CST WED FEB 10 2016

NOTE: "FAIR" INDICATES FEW OR NO CLOUDS BELOW 12,000 FEET WITH NO
SIGNIFICANT WEATHER AND/OR OBSTRUCTIONS TO VISIBILITY.

* - THESE STATIONS ARE NOT NWS STATIONS...THUS NOT UNDER NWS
QUALITY CONTROL.  THEY ALSO DO NOT REPORT WEATHER SUCH
AS PRECIPITATION OR FOG.

IAZ001>003-012>014-020>022-031>034-043>046-101600-
   NORTHWEST IOWA

CITY           SKY/WX    TMP DP  RH WIND       PRES   REMARKS
CARROLL *      LGT SNOW  14  12  92 SE13      30.04F WCI   0
CHEROKEE *     LGT SNOW  18  16  93 SE7       30.02R WCI   8
DENISON *      LGT SNOW  21  18  86 SE10G17   30.00F WCI  10
LE MARS *      PTSUNNY   21  21 100 E10G18    29.99F FOG     WCI  10
ORANGE CITY *  LGT SNOW  19  19 100 E8        29.98F WCI   9
SHELDON *      LGT SNOW  16  14  93 E15       29.98F WCI   1
SIOUX CITY     CLOUDY    25  17  72 SE15      29.97F WCI  13
SPENCER        LGT SNOW  11   6  81 E12       30.04R WCI  -3
STORM LAKE *   LGT SNOW  14  14 100 SE13      30.02S VSB 1   WCI   0
$$

IAZ055>058-069>071-079>083-090>094-101600-
   SOUTHWEST IOWA

CITY           SKY/WX    TMP DP  RH WIND       PRES   REMARKS
ATLANTIC *     CLOUDY    23  18  80 SE6       30.03F WCI  16
AUDUBON *      LGT SNOW  21  18  86 SE6       30.04R WCI  14
CLARINDA *     MOSUNNY   27  19  74 S9        30.05F WCI  17
COUNCIL BLFS * MOSUNNY   27  19  74 SE9       29.99S WCI  17
CRESTON *      CLOUDY    21  18  86 SE7       30.06F WCI  13
HARLAN  *      CLOUDY    23  19  86 SE8       30.07R WCI  14
LAMONI         CLOUDY    21  16  81 S5        30.08S WCI  15
RED OAK *      CLOUDY    27  19  74 S9        30.03F WCI  17
SHENANDOAH *   PTSUNNY   28  19  69 S10       30.03F WCI  19
$$

IAZ047>049-059>061-072>074-084-101600-
   CENTRAL IOWA

CITY           SKY/WX    TMP DP  RH WIND       PRES   REMARKS
AMES           LGT SNOW  13   8  81 E6        30.10S VSB 1   WCI   4
ANKENY *       LGT SNOW  14  10  85 E3        30.11S
BOONE *        LGT SNOW  12   7  79 E6        30.07R WCI   3
CHARITON *     LGT SNOW  16  12  86 S5        30.09F WCI   9
DES MOINES     LGT SNOW  16  11  80 VRB5      30.09F VSB 3/4 WCI   9
GRINNELL*      CLOUDY    12   5  73 CALM      30.10F
KNOXVILLE *    LGT SNOW  16   9  73 CALM      30.10S
MARSHALLTOWN   CLOUDY    10   2  69 N3        30.10S
NEWTON *       LGT SNOW  12   5  73 CALM      30.11S
PELLA *        LGT SNOW  16   7  67 CALM      30.13S
$$

IAZ004>006-015-016-023>025-035-036-101600-
   NORTH CENTRAL IOWA

CITY           SKY/WX    TMP DP  RH WIND       PRES   REMARKS
ALGONA *       LGT SNOW  10   7  85 E5        30.06S WCI   2
CLARION *      LGT SNOW   9   3  78 E5        30.08S WCI   0
ESTHERVILLE    LGT SNOW   8   5  87 E7        30.05S VSB 1   WCI  -3
FORT DODGE *   CLOUDY    10   5  79 E8        30.08S WCI  -1
MASON CITY     CLOUDY     6  -1  73 CALM      30.09S
FOREST CITY *  CLOUDY     9   1  72 CALM      30.08R
WEBSTER CITY * LGT SNOW  10   5  79 E7        30.07S WCI   0
IOWA FALLS *   CLOUDY    10   3  72 CALM      30.09S
$$

IAZ007>011-017>019-026>030-037>042-050>054-066-101600-
   NORTHEAST IOWA

CITY           SKY/WX    TMP DP  RH WIND       PRES   REMARKS
CEDAR RAPIDS   CLOUDY     8   2  76 NW6       30.11R WCI  -2
CHARLES CITY * CLOUDY     5  -2  72 N6        30.10R WCI  -6
CLINTON *      SUNNY     10   2  69 NW12      30.11S WCI  -5
DECORAH *      SUNNY      3  -6  66 N6        30.07R WCI  -8
DUBUQUE        MOSUNNY    6  -3  66 N10       30.06S WCI  -9
MONTICELLO *   SUNNY      9  -2  61 NW8       30.10S WCI  -4
OELWEIN *      SUNNY      5  -4  66 NW8       30.10R WCI  -8
WATERLOO       CLOUDY     6  -1  73 NW3       30.12R
$$

IAZ064-065-067-068-078-101600-
   EAST CENTRAL IOWA

CITY           SKY/WX    TMP DP  RH WIND       PRES   REMARKS
DAVENPORT      MOSUNNY   10  -1  61 NW9       30.11S WCI  -3
IOWA CITY      CLOUDY    11   1  64 NW9       30.15R WCI  -2
MT. PLEASANT * CLOUDY    16   5  62 NW6       30.14R WCI   7
MUSCATINE *    SUNNY     12   1  62 NW8       30.15S WCI   1
QUAD CITIES    CLOUDY    12   0  58 NW9       30.12S WCI   0
$$

IAZ062-063-075>077-085>089-095>099-101600-
   SOUTHEAST IOWA

CITY           SKY/WX    TMP DP  RH WIND       PRES   REMARKS
BURLINGTON     CLOUDY    12   4  70 NW7       30.13S WCI   1
FAIRFIELD *    MOSUNNY   14   3  62 NW6       30.13S WCI   5
FORT MADISON * CLOUDY    12   7  79 NW8       30.14R WCI   1
KEOKUK *       PTSUNNY   14   5  67 W7        30.14S WCI   4
OSKALOOSA *    CLOUDY    14   5  67 CALM      30.12S
CENTERVILLE *  FLURRIES  16  10  79 CALM      30.12S
OTTUMWA        CLOUDY    14   5  67 NW3       30.12S
WASHINGTON *   CLOUDY    12   1  62 NW7       30.15R WCI   2
$$

ABBREVIATIONS USED IN REMARKS
   TC - TEMPERATURES IN CELSIUS
  WCI - WIND CHILL INDEX
   HX - HEAT INDEX
  VSB - VISIBILITY
$$




USA.gov is the U.S. government's official web portal to all federal, state and local government web resources and services.